Regional Weather Roundup
Issued by NWS Newport/Morehead, NC

Home | Current Version | Previous Version | Text Only | Print | Product List | Glossary On
Versions: 1 2 3 4 5 6 7 8 9 10 11 12 13 14 15 16 17 18 19 20 21 22 23 24 25 26 27 28 29 30 31 32 33 34 35 36 37 38 39 40 41 42 43 44 45 46 47 48 49 50
000
ASUS42 KMHX 201022
RWRMHX
WEATHER ROUNDUP FOR EASTERN NORTH CAROLINA
NATIONAL WEATHER SERVICE NEWPORT/MOREHEAD CITY NC
600 AM EDT MON OCT 20 2014

NOTE: "FAIR" INDICATES FEW OR NO CLOUDS BELOW 12,000 FEET
WITH NO SIGNIFICANT WEATHER AND/OR OBSTRUCTIONS TO VISIBILITY

NCZ015>017-031-032-045>047-102-103-201100-
NORTH COAST

CITY           SKY/WX    TMP DP  RH WIND       PRES   REMARKS
EDENTON        CLEAR     40  38  95 CALM      30.15R
ELIZABETH CITY CLEAR     43  39  86 CALM      30.15R
KITTY HAWK     SUNNY     54  44  67 W3        30.13S
MANTEO         CLEAR     45  43  90 CALM      30.15R

$$

NCZ045>047-081-094-103-104-201100-
CENTRAL COAST

CITY           SKY/WX    TMP DP  RH WIND       PRES   REMARKS
FRISCO         CLEAR     48  44  86 CALM      30.15R
SWANQUARTER      N/A     43 N/A N/A CALM      30.12S

$$

NCZ095-097-098-100-101-201100-
SOUTHERN COAST

CITY           SKY/WX    TMP DP  RH WIND       PRES   REMARKS
BEAUFORT       CLEAR     46  44  93 CALM      30.16R
CEDAR ISLAND     N/A     50 N/A N/A SE2       30.18S
JACKSONVILLE   PTCLDY    43  41  93 CALM      30.15S
PINEY ISLAND   SUNNY     54  43  66 SW6       30.14S
WILMINGTON     CLEAR     45  43  93 CALM      30.15R


$$

NCZ011>013-027>030-043-044-078>080-089-090>093-098-201100-
COASTAL PLAIN

CITY           SKY/WX    TMP DP  RH WIND       PRES   REMARKS
AHOSKIE        CLEAR     36  35  96 CALM      30.16R
CLINTON        CLEAR     41  41 100 CALM      30.17R
ELIZABETHTOWN  CLEAR     44  42  91 CALM      30.16R
GOLDSBORO      PTCLDY    43  42  97 CALM      30.14R
GREENVILLE     CLEAR     41  41 100 CALM      30.16R FOG
HAVELOCK       CLEAR     42  40  92 CALM      30.17R
KENANSVILLE    CLEAR     38  38 100 CALM      30.17R
KINSTON        PTCLDY    38  38  98 CALM      30.17R
NEW BERN       FOG       44  42  93 CALM      30.18R VSB 1
RICHLANDS      CLEAR     37  36  93 CALM      30.17R
ROCKY MOUNT    MOCLDY    39  38  96 CALM      30.15R
WASHINGTON     PTCLDY    40  39  97 CALM      30.16R
WHITEVILLE     CLEAR     43  41  95 CALM      30.15S

$$

AMZ130-135-150-152-154-156-158-170-250-252-270-ANZ085-086-088-633-658-670-201100-
MARINE OBSERVATIONS

STATION/POSITION TIME  TEMP    WIND        PRES    WAVE   SWELL
                       AIR SEA DIR/SP/G            HT/PER HT/PER
                 (UTC) (F)     (DEG/KT/KT) (MB)    (FT/S) (FT/S)
CHESAPEAKE LIGHT 1000   59      CALM  /  1 1021.0
64 E VA BEACH    1000   60 69  360/  4/  8 1020.1    3/13   3/13
DUCK             1000   59 67  320/  5/  5 1019.7
2 E DUCK         1000                        N/A     4/ 5   2/13
10 NE DUCK       1000      71                N/A     4/13   2/13
OREGON INLET     1000   56 67  270/  2/  2 1020.5
13E OREGON INLT  1000      74                N/A     4/13   2/13
HATTERAS CG      1000   60 66   40/  2/  4 1021.1
DIAMOND BUOY     1000   62      10/  4/  8 1020.7    4/12   3/12
17 S OCRACOKE    NOT AVBL
CAPE LOOKOUT     1000   59     320/  3/  5 1020.8
BEAUFORT LAB     1000   57 69  360/  2/  2 1020.4
30 SE NEW RIVER  1000   64 76   80/  4/  8 1020.3    2/ 9   2/ 9
5 SE WRIGHTSVLE  1000   62 73  100/  4/  6   N/A
225 S CAPE HAT   0926   70 80   80/  8/ 12 1019.7    5/ 8   5/ 8
41 SE CHARLESTON 1000   70 79  120/  4/  8 1019.0    2/10   2/10

$$



USA.gov is the U.S. government's official web portal to all federal, state and local government web resources and services.